contact:dominique.lefevre@mio.osupytheas.fr, maurice.libes@osupytheas.fr, didier.mallarino@osupytheas.fr
Project:EMSO http://www.emso-fr.org/EMSO-France
Depth: 2436.0 m
Title:EMSO Ligure Ouest : Data MII capteur AQUADOPP
Date,Latitude,Longitude,X_East,Y_North,Z_Up,Amplitude_X,Amplitude_Y,Amplitude_Z,Batterie,SoundSpeed,Heading,Pitch,Roll,Pressure,TIS,Speed,Direction
, degrees North, degrees East, m.s-1, m.s-1,m.s-1, 1, 1, 1, Volt, m.s-1, degree, degree, degree, dbar, degree_C, m.s-1, degree
2023-05-15T00:04:03,42.805,6.029,0.029,-0.003,-0.002,102.0,102.0,101.0,13.4,1505.2,343.7,-0.8,1.8,2471.352,13.28,0.029,95.9
2023-05-15T00:07:03,42.805,6.029,0.033,0.012,-0.022,104.0,102.0,100.0,13.3,1505.2,321.1,-0.8,1.8,2471.375,13.28,0.035,70.0
2023-05-15T00:10:03,42.805,6.029,0.047,0.008,-0.007,102.0,102.0,100.0,13.4,1505.2,326.0,-0.7,1.8,2471.329,13.28,0.047,80.3
2023-05-15T00:13:03,42.805,6.029,0.023,0.005,-0.017,101.0,104.0,102.0,13.3,1505.2,336.3,-0.8,1.8,2471.374,13.29,0.023,77.7
2023-05-15T00:16:03,42.805,6.029,0.022,0.013,-0.014,103.0,102.0,101.0,13.3,1505.2,330.0,-0.8,1.8,2471.352,13.29,0.025,59.4
2023-05-15T00:19:03,42.805,6.029,0.023,-0.017,-0.067,102.0,101.0,101.0,13.3,1505.2,339.3,-0.8,1.8,2471.345,13.29,0.028,126.5
2023-05-15T00:22:03,42.805,6.029,0.05,-0.015,-0.028,101.0,102.0,101.0,13.3,1505.2,318.9,-0.8,1.8,2471.361,13.29,0.052,106.7
2023-05-15T00:25:03,42.805,6.029,0.032,-0.011,-0.036,102.0,102.0,101.0,13.3,1505.2,324.8,-0.8,1.8,2471.345,13.29,0.033,109.0
2023-05-15T00:28:03,42.805,6.029,0.028,-0.004,-0.029,102.0,102.0,100.0,13.3,1505.2,325.8,-0.8,1.8,2471.317,13.29,0.028,98.1
2023-05-15T00:31:03,42.805,6.029,0.028,0.006,-0.02,102.0,102.0,100.0,13.4,1505.2,323.3,-0.7,1.8,2471.353,13.29,0.028,77.9
2023-05-15T00:34:03,42.805,6.029,0.03,-0.004,-0.026,102.0,103.0,102.0,13.3,1505.2,343.9,-0.7,1.8,2471.352,13.29,0.03,97.6
2023-05-15T00:37:03,42.805,6.029,0.03,-0.011,-0.037,103.0,102.0,100.0,13.3,1505.2,319.9,-0.8,1.8,2471.363,13.29,0.031,110.1
2023-05-15T00:40:03,42.805,6.029,0.04,-0.013,-0.04,102.0,104.0,101.0,13.3,1505.2,330.3,-0.8,1.8,2471.339,13.29,0.042,108.0
2023-05-15T00:43:03,42.805,6.029,0.029,0.038,0.003,102.0,102.0,102.0,13.4,1505.2,328.1,-0.8,1.8,2471.349,13.29,0.047,37.3
2023-05-15T00:46:03,42.805,6.029,0.033,-0.01,-0.047,102.0,103.0,102.0,13.3,1505.2,322.4,-0.8,1.8,2471.374,13.29,0.034,106.9
2023-05-15T00:49:03,42.805,6.029,0.013,0.003,-0.004,106.0,103.0,101.0,13.4,1505.2,321.6,-0.7,1.8,2471.343,13.29,0.013,77.0
2023-05-15T00:52:03,42.805,6.029,0.055,-0.014,-0.014,103.0,102.0,102.0,13.3,1505.2,343.3,-0.8,1.8,2471.355,13.29,0.056,104.3
2023-05-15T00:55:03,42.805,6.029,0.038,-0.006,-0.004,103.0,101.0,101.0,13.4,1505.2,339.4,-0.8,1.8,2471.363,13.29,0.038,99.0
2023-05-15T00:58:03,42.805,6.029,0.027,-0.013,-0.066,102.0,101.0,101.0,13.4,1505.2,327.8,-0.8,1.9,2471.341,13.29,0.029,115.7
2023-05-15T01:04:03,42.805,6.029,0.026,0.008,0.007,103.0,103.0,102.0,13.4,1505.2,340.9,-0.8,1.8,2471.388,13.28,0.027,72.9
2023-05-15T01:07:03,42.805,6.029,0.023,-0.02,-0.034,104.0,102.0,102.0,13.4,1505.2,335.4,-0.8,1.8,2471.365,13.28,0.03,131.0
2023-05-15T01:10:03,42.805,6.029,0.012,0.012,-0.039,102.0,101.0,102.0,13.3,1505.2,331.4,-0.8,1.8,2471.374,13.28,0.016,45.0
2023-05-15T01:13:03,42.805,6.029,0.007,0.009,-0.028,102.0,101.0,101.0,13.4,1505.2,327.5,-0.8,1.8,2471.385,13.29,0.011,37.9
2023-05-15T01:16:03,42.805,6.029,0.038,0.007,-0.007,104.0,102.0,101.0,13.3,1505.2,333.4,-0.8,1.9,2471.313,13.29,0.038,79.6
2023-05-15T01:19:03,42.805,6.029,0.012,-0.01,-0.067,103.0,102.0,101.0,13.3,1505.2,344.3,-0.8,1.8,2471.358,13.29,0.015,129.8
2023-05-15T01:22:03,42.805,6.029,0.015,-0.013,-0.052,102.0,101.0,101.0,13.4,1505.2,337.6,-0.8,1.8,2471.377,13.29,0.019,130.9
2023-05-15T01:25:03,42.805,6.029,0.037,-0.003,-0.041,101.0,102.0,101.0,13.4,1505.2,342.5,-0.8,1.8,2471.377,13.29,0.037,94.6
2023-05-15T01:28:03,42.805,6.029,0.022,0.015,-0.046,102.0,102.0,101.0,13.3,1505.2,320.4,-0.8,1.8,2471.353,13.29,0.026,55.7
2023-05-15T01:31:03,42.805,6.029,0.044,0.007,-0.007,101.0,103.0,101.0,13.3,1505.2,323.8,-0.8,1.8,2471.364,13.29,0.044,81.0
2023-05-15T01:34:03,42.805,6.029,0.043,-0.015,-0.037,102.0,100.0,102.0,13.4,1505.2,321.3,-0.8,1.8,2471.379,13.29,0.045,109.2
2023-05-15T01:37:03,42.805,6.029,0.007,0.021,-0.013,103.0,101.0,101.0,13.4,1505.2,320.7,-0.8,1.8,2471.364,13.29,0.022,18.4
2023-05-15T01:40:03,42.805,6.029,0.033,-0.004,-0.03,102.0,102.0,102.0,13.4,1505.2,328.8,-0.8,1.8,2471.367,13.29,0.033,96.9
2023-05-15T01:43:03,42.805,6.029,0.023,0.002,-0.03,101.0,102.0,101.0,13.3,1505.2,324.1,-0.8,1.8,2471.38,13.29,0.023,85.0
2023-05-15T01:46:03,42.805,6.029,0.031,-0.007,-0.027,101.0,103.0,99.0,13.4,1505.2,339.5,-0.8,1.8,2471.4,13.29,0.031,102.7
2023-05-15T01:49:03,42.805,6.029,0.033,-0.016,-0.041,103.0,101.0,101.0,13.4,1505.2,341.2,-0.8,1.8,2471.367,13.29,0.036,115.9
2023-05-15T01:52:03,42.805,6.029,0.035,0.001,-0.008,103.0,101.0,101.0,13.4,1505.2,335.2,-0.8,1.8,2471.407,13.29,0.035,88.4
2023-05-15T01:55:03,42.805,6.029,0.015,0.013,-0.021,102.0,103.0,101.0,13.4,1505.2,329.0,-0.8,1.8,2471.362,13.29,0.019,49.1
2023-05-15T01:58:03,42.805,6.029,0.04,0.012,-0.035,102.0,102.0,100.0,13.4,1505.2,318.6,-0.7,1.8,2471.37,13.29,0.041,73.3
2023-05-15T02:04:03,42.805,6.029,0.032,0.001,-0.006,100.0,102.0,101.0,13.3,1505.2,327.4,-0.8,1.8,2471.442,13.28,0.032,88.2
2023-05-15T02:07:03,42.805,6.029,0.023,0.006,-0.018,100.0,100.0,101.0,13.3,1505.2,336.0,-0.8,1.8,2471.415,13.28,0.023,75.4
2023-05-15T02:10:03,42.805,6.029,0.037,0.011,0.0,101.0,101.0,100.0,13.4,1505.2,323.8,-0.8,1.8,2471.419,13.28,0.038,73.4
2023-05-15T02:13:03,42.805,6.029,0.008,0.0,-0.029,103.0,101.0,102.0,13.4,1505.2,319.3,-0.8,1.8,2471.442,13.29,0.008,90.0
2023-05-15T02:16:03,42.805,6.029,0.029,-0.003,0.002,101.0,103.0,102.0,13.3,1505.2,332.9,-0.8,1.8,2471.403,13.29,0.029,95.9
2023-05-15T02:19:03,42.805,6.029,0.0,-0.011,-0.052,100.0,101.0,101.0,13.4,1505.2,343.7,-0.7,1.8,2471.38,13.29,0.011,180.0
2023-05-15T02:22:03,42.805,6.029,0.018,0.01,-0.039,102.0,103.0,99.0,13.3,1505.2,339.8,-0.8,1.8,2471.392,13.29,0.02,60.9
2023-05-15T02:25:03,42.805,6.029,0.02,0.0,-0.028,101.0,101.0,101.0,13.3,1505.2,343.3,-0.8,1.8,2471.417,13.29,0.02,90.0
2023-05-15T02:28:03,42.805,6.029,0.036,-0.003,-0.006,101.0,102.0,101.0,13.4,1505.2,320.8,-0.8,1.8,2471.426,13.29,0.036,94.8
2023-05-15T02:31:03,42.805,6.029,0.023,0.019,-0.013,101.0,102.0,101.0,13.3,1505.2,324.1,-0.8,1.8,2471.43,13.29,0.029,50.4
2023-05-15T02:34:03,42.805,6.029,0.015,-0.006,-0.026,101.0,101.0,101.0,13.4,1505.2,345.2,-0.8,1.8,2471.422,13.29,0.016,111.8
2023-05-15T02:37:03,42.805,6.029,0.011,0.012,-0.032,102.0,101.0,101.0,13.4,1505.2,319.6,-0.8,1.8,2471.394,13.29,0.016,42.5
2023-05-15T02:40:03,42.805,6.029,0.009,0.007,-0.055,101.0,102.0,101.0,13.4,1505.2,333.4,-0.8,1.8,2471.398,13.29,0.011,52.1
2023-05-15T02:43:03,42.805,6.029,0.011,0.037,0.019,103.0,101.0,101.0,13.4,1505.2,321.7,-0.8,1.8,2471.355,13.29,0.038,16.6
2023-05-15T02:46:03,42.805,6.029,0.022,-0.001,-0.009,100.0,103.0,102.0,13.4,1505.2,326.0,-0.8,1.8,2471.356,13.29,0.022,92.6
2023-05-15T02:49:03,42.805,6.029,0.014,0.001,-0.044,100.0,102.0,100.0,13.4,1505.2,343.3,-0.8,1.8,2471.406,13.29,0.014,85.9
2023-05-15T02:52:03,42.805,6.029,0.012,0.027,-0.002,101.0,101.0,102.0,13.4,1505.2,322.4,-0.8,1.8,2471.362,13.29,0.029,24.0
2023-05-15T02:55:03,42.805,6.029,0.01,0.019,-0.03,101.0,102.0,101.0,13.4,1505.2,320.6,-0.8,1.8,2471.403,13.29,0.021,27.8
2023-05-15T02:58:03,42.805,6.029,-0.002,0.005,-0.024,102.0,102.0,101.0,13.4,1505.2,332.9,-0.7,1.8,2471.431,13.29,0.005,338.2
2023-05-15T03:04:03,42.805,6.029,0.023,0.009,-0.015,102.0,101.0,101.0,13.4,1505.2,324.5,-0.8,1.8,2471.419,13.28,0.024,68.6
2023-05-15T03:07:03,42.805,6.029,0.04,0.002,-0.024,102.0,101.0,101.0,13.3,1505.2,326.0,-0.8,1.8,2471.438,13.28,0.04,87.1
2023-05-15T03:10:03,42.805,6.029,0.023,0.012,0.0,101.0,103.0,101.0,13.4,1505.2,324.8,-0.8,1.8,2471.464,13.28,0.025,62.4
2023-05-15T03:13:03,42.805,6.029,0.026,0.012,0.005,101.0,102.0,100.0,13.4,1505.2,331.8,-0.8,1.8,2471.454,13.29,0.028,65.2
2023-05-15T03:16:03,42.805,6.029,0.009,0.008,-0.026,102.0,101.0,100.0,13.3,1505.2,321.7,-0.7,1.9,2471.434,13.29,0.012,48.4
2023-05-15T03:19:03,42.805,6.029,0.015,0.005,-0.042,100.0,102.0,101.0,13.4,1505.2,326.5,-0.8,1.8,2471.446,13.29,0.015,71.6
2023-05-15T03:22:03,42.805,6.029,0.016,0.016,-0.005,101.0,102.0,100.0,13.4,1505.2,325.2,-0.8,1.8,2471.382,13.29,0.022,45.0
2023-05-15T03:25:03,42.805,6.029,0.018,0.014,-0.044,102.0,101.0,101.0,13.4,1505.2,320.1,-0.7,1.8,2471.414,13.29,0.022,52.1
2023-05-15T03:28:03,42.805,6.029,0.013,0.015,-0.025,101.0,101.0,102.0,13.4,1505.2,327.8,-0.8,1.8,2471.413,13.29,0.019,40.9
2023-05-15T03:31:03,42.805,6.029,0.033,-0.002,-0.033,102.0,100.0,100.0,13.4,1505.2,343.0,-0.7,1.8,2471.384,13.29,0.033,93.5
2023-05-15T03:34:03,42.805,6.029,0.013,0.018,-0.023,101.0,102.0,100.0,13.4,1505.2,325.0,-0.8,1.9,2471.379,13.29,0.022,35.8
2023-05-15T03:37:03,42.805,6.029,0.022,0.006,-0.022,102.0,101.0,101.0,13.3,1505.2,337.2,-0.8,1.8,2471.394,13.29,0.022,74.7
2023-05-15T03:40:03,42.805,6.029,0.023,0.011,0.004,102.0,102.0,101.0,13.3,1505.2,330.5,-0.7,1.8,2471.395,13.29,0.025,64.4
2023-05-15T03:43:03,42.805,6.029,0.019,-0.009,-0.029,101.0,101.0,101.0,13.4,1505.2,319.6,-0.8,1.8,2471.406,13.29,0.021,115.3
2023-05-15T03:46:03,42.805,6.029,0.006,0.021,-0.022,101.0,103.0,100.0,13.3,1505.2,324.3,-0.8,1.8,2471.435,13.29,0.021,15.9
2023-05-15T03:49:03,42.805,6.029,0.014,0.012,-0.016,102.0,102.0,100.0,13.4,1505.2,321.7,-0.7,1.8,2471.42,13.29,0.018,49.4
2023-05-15T03:52:03,42.805,6.029,0.037,-0.016,-0.014,102.0,101.0,101.0,13.4,1505.2,334.4,-0.8,1.8,2471.39,13.29,0.04,113.4
2023-05-15T03:55:03,42.805,6.029,0.033,0.009,0.0,102.0,101.0,101.0,13.4,1505.2,340.2,-0.7,1.8,2471.399,13.29,0.034,74.7
2023-05-15T03:58:03,42.805,6.029,0.026,0.022,-0.026,102.0,101.0,101.0,13.4,1505.2,333.9,-0.8,1.8,2471.389,13.29,0.034,49.8
2023-05-15T04:04:03,42.805,6.029,0.001,0.0,-0.039,102.0,101.0,101.0,13.3,1505.2,342.1,-0.8,1.8,2471.434,13.28,0.001,90.0
2023-05-15T04:07:03,42.805,6.029,0.023,0.019,-0.013,102.0,102.0,100.0,13.3,1505.2,327.2,-0.8,1.8,2471.46,13.28,0.029,50.4
2023-05-15T04:10:03,42.805,6.029,0.019,0.003,-0.032,101.0,102.0,101.0,13.4,1505.2,333.9,-0.8,1.8,2471.414,13.29,0.019,81.0
2023-05-15T04:13:03,42.805,6.029,0.026,0.012,-0.018,102.0,102.0,100.0,13.4,1505.2,319.3,-0.8,1.8,2471.407,13.29,0.028,65.2
2023-05-15T04:16:03,42.805,6.029,0.011,-0.006,-0.041,102.0,101.0,101.0,13.4,1505.2,324.4,-0.8,1.8,2471.402,13.29,0.012,118.6
2023-05-15T04:19:03,42.805,6.029,0.04,0.0,0.009,102.0,102.0,100.0,13.4,1505.2,332.9,-0.8,1.8,2471.418,13.29,0.04,90.0
2023-05-15T04:22:03,42.805,6.029,0.0,0.017,0.005,101.0,101.0,101.0,13.4,1505.2,330.5,-0.8,1.8,2471.453,13.29,0.017,0.0
2023-05-15T04:25:03,42.805,6.029,0.031,0.014,0.0,102.0,102.0,101.0,13.3,1505.2,339.4,-0.8,1.8,2471.393,13.29,0.034,65.7
2023-05-15T04:28:03,42.805,6.029,-0.01,0.021,-0.05,102.0,101.0,101.0,13.4,1505.2,334.4,-0.8,1.8,2471.38,13.29,0.023,334.5
2023-05-15T04:31:03,42.805,6.029,0.024,-0.008,-0.044,101.0,103.0,102.0,13.3,1505.2,322.9,-0.8,1.8,2471.397,13.29,0.025,108.4
2023-05-15T04:34:03,42.805,6.029,0.003,0.001,-0.02,101.0,103.0,102.0,13.4,1505.2,320.7,-0.8,1.8,2471.416,13.29,0.003,71.6
2023-05-15T04:37:03,42.805,6.029,0.029,0.01,-0.017,103.0,102.0,102.0,13.3,1505.2,337.2,-0.7,1.8,2471.374,13.29,0.03,71.0
2023-05-15T04:40:03,42.805,6.029,0.016,0.009,0.005,102.0,103.0,101.0,13.4,1505.2,342.7,-0.7,1.8,2471.383,13.29,0.018,60.6
2023-05-15T04:43:03,42.805,6.029,0.007,0.022,0.002,102.0,102.0,100.0,13.4,1505.2,317.6,-0.8,1.8,2471.403,13.29,0.023,17.6
2023-05-15T04:46:03,42.805,6.029,0.031,0.029,-0.015,103.0,102.0,100.0,13.4,1505.2,337.9,-0.8,1.8,2471.399,13.29,0.042,46.9
2023-05-15T04:49:03,42.805,6.029,0.039,0.024,-0.003,102.0,102.0,101.0,13.4,1505.2,329.8,-0.8,1.8,2471.365,13.29,0.045,58.4
2023-05-15T04:52:03,42.805,6.029,0.014,0.002,-0.031,102.0,103.0,101.0,13.3,1505.2,331.0,-0.7,1.8,2471.387,13.29,0.014,81.9
2023-05-15T04:55:03,42.805,6.029,0.026,0.019,-0.027,101.0,103.0,101.0,13.4,1505.2,335.4,-0.7,1.8,2471.409,13.29,0.032,53.8
2023-05-15T04:58:03,42.805,6.029,0.03,0.006,-0.014,103.0,105.0,102.0,13.4,1505.2,326.5,-0.8,1.8,2471.413,13.29,0.03,78.7
2023-05-15T05:04:03,42.805,6.029,0.032,-0.002,-0.015,104.0,101.0,102.0,13.4,1505.2,344.3,-0.8,1.8,2471.464,13.28,0.032,93.6
2023-05-15T05:07:03,42.805,6.029,0.022,0.0,-0.028,102.0,102.0,100.0,13.4,1505.2,338.4,-0.8,1.8,2471.426,13.28,0.022,90.0
2023-05-15T05:10:03,42.805,6.029,0.03,0.008,-0.013,103.0,101.0,100.0,13.3,1505.2,337.3,-0.8,1.8,2471.406,13.29,0.031,75.1
2023-05-15T05:13:03,42.805,6.029,0.027,-0.023,-0.038,102.0,102.0,101.0,13.4,1505.2,335.2,-0.7,1.8,2471.411,13.29,0.035,130.4
2023-05-15T05:16:03,42.805,6.029,0.025,-0.02,-0.013,102.0,102.0,101.0,13.4,1505.2,343.0,-0.8,1.8,2471.435,13.29,0.032,128.7
2023-05-15T05:19:03,42.805,6.029,-0.004,0.018,0.008,100.0,102.0,102.0,13.3,1505.2,322.2,-0.8,1.8,2471.379,13.29,0.018,347.5
2023-05-15T05:22:03,42.805,6.029,0.004,0.001,-0.028,100.0,103.0,101.0,13.3,1505.2,330.3,-0.7,1.8,2471.429,13.29,0.004,76.0
2023-05-15T05:25:03,42.805,6.029,0.007,-0.011,-0.053,103.0,101.0,101.0,13.4,1505.2,326.0,-0.8,1.8,2471.382,13.29,0.013,147.5
2023-05-15T05:28:03,42.805,6.029,0.011,0.034,-0.003,102.0,100.0,101.0,13.4,1505.2,328.5,-0.7,1.8,2471.36,13.29,0.035,17.9
2023-05-15T05:31:03,42.805,6.029,0.053,0.006,-0.008,101.0,103.0,101.0,13.4,1505.2,337.5,-0.8,1.8,2471.368,13.29,0.053,83.5
2023-05-15T05:34:03,42.805,6.029,0.014,0.015,-0.015,103.0,103.0,100.0,13.4,1505.2,338.7,-0.7,1.8,2471.35,13.29,0.02,43.0
2023-05-15T05:37:03,42.805,6.029,0.028,0.01,0.003,101.0,102.0,101.0,13.4,1505.2,334.9,-0.8,1.8,2471.4,13.29,0.029,70.4
2023-05-15T05:40:03,42.805,6.029,0.029,0.0,-0.016,102.0,101.0,100.0,13.4,1505.2,324.6,-0.8,1.8,2471.346,13.29,0.028,90.0
2023-05-15T05:43:03,42.805,6.029,0.02,0.016,-0.005,101.0,102.0,100.0,13.4,1505.2,330.1,-0.8,1.8,2471.377,13.29,0.025,51.3
2023-05-15T05:46:03,42.805,6.029,0.014,-0.002,-0.025,102.0,101.0,101.0,13.3,1505.2,333.4,-0.8,1.8,2471.376,13.29,0.014,98.1
2023-05-15T05:49:03,42.805,6.029,0.021,0.001,-0.027,101.0,103.0,100.0,13.4,1505.2,320.1,-0.8,1.8,2471.359,13.29,0.021,87.3
2023-05-15T05:52:03,42.805,6.029,-0.004,0.012,-0.048,102.0,103.0,99.0,13.4,1505.2,319.2,-0.8,1.8,2471.371,13.29,0.012,341.6
2023-05-15T05:55:03,42.805,6.029,0.008,0.013,-0.029,101.0,101.0,100.0,13.4,1505.2,344.2,-0.7,1.8,2471.354,13.29,0.015,31.6
2023-05-15T05:58:03,42.805,6.029,0.031,0.0,-0.015,101.0,101.0,101.0,13.4,1505.2,336.6,-0.8,1.8,2471.303,13.29,0.03,90.0
2023-05-15T06:04:03,42.805,6.029,-0.013,0.005,-0.013,101.0,102.0,101.0,13.3,1505.2,333.9,-0.8,1.8,2471.367,13.28,0.013,291.0
2023-05-15T06:07:03,42.805,6.029,0.011,0.011,0.0,103.0,106.0,99.0,13.4,1505.2,338.2,-0.7,1.8,2471.372,13.28,0.015,45.0
2023-05-15T06:10:03,42.805,6.029,0.024,0.0,-0.006,103.0,101.0,101.0,13.4,1505.2,344.5,-0.8,1.8,2471.359,13.29,0.024,90.0
2023-05-15T06:13:03,42.805,6.029,0.036,0.0,-0.019,101.0,103.0,100.0,13.4,1505.2,329.0,-0.8,1.8,2471.403,13.29,0.036,90.0
2023-05-15T06:16:03,42.805,6.029,0.009,0.009,-0.034,102.0,100.0,101.0,13.4,1505.2,316.2,-0.8,1.8,2471.332,13.29,0.012,45.0
2023-05-15T06:19:03,42.805,6.029,0.014,0.019,-0.014,102.0,102.0,102.0,13.3,1505.2,327.9,-0.8,1.8,2471.344,13.29,0.023,36.4
2023-05-15T06:22:03,42.805,6.029,0.019,0.006,-0.008,103.0,102.0,101.0,13.4,1505.2,338.2,-0.8,1.8,2471.345,13.29,0.019,72.5
2023-05-15T06:25:03,42.805,6.029,-0.008,0.005,-0.037,102.0,102.0,102.0,13.3,1505.2,338.8,-0.8,1.8,2471.333,13.29,0.009,302.0
2023-05-15T06:28:03,42.805,6.029,0.02,0.009,-0.002,102.0,102.0,101.0,13.3,1505.2,319.9,-0.7,1.8,2471.361,13.29,0.021,65.8
2023-05-15T06:31:03,42.805,6.029,0.004,0.0,-0.012,102.0,102.0,101.0,13.4,1505.2,332.9,-0.8,1.8,2471.355,13.29,0.004,90.0
2023-05-15T06:34:03,42.805,6.029,0.031,0.034,0.01,101.0,103.0,101.0,13.4,1505.2,318.7,-0.7,1.8,2471.332,13.29,0.046,42.4
2023-05-15T06:37:03,42.805,6.029,0.026,0.01,0.0,102.0,102.0,101.0,13.4,1505.2,316.9,-0.8,1.8,2471.331,13.29,0.027,69.0
2023-05-15T06:40:03,42.805,6.029,0.012,0.012,0.006,102.0,103.0,100.0,13.3,1505.2,336.1,-0.8,1.8,2471.317,13.29,0.016,45.0
2023-05-15T06:43:03,42.805,6.029,0.023,-0.003,-0.014,101.0,102.0,101.0,13.4,1505.2,328.4,-0.7,1.8,2471.311,13.29,0.023,97.4
2023-05-15T06:46:03,42.805,6.029,0.019,0.018,-0.01,101.0,102.0,101.0,13.4,1505.2,331.0,-0.8,1.8,2471.338,13.29,0.026,46.5
2023-05-15T06:49:03,42.805,6.029,0.044,-0.003,-0.01,100.0,104.0,102.0,13.4,1505.2,335.4,-0.8,1.8,2471.334,13.29,0.044,93.9
2023-05-15T06:52:03,42.805,6.029,0.011,0.025,-0.01,102.0,102.0,101.0,13.4,1505.2,344.2,-0.8,1.8,2471.344,13.29,0.027,23.7
2023-05-15T06:55:03,42.805,6.029,0.026,0.015,0.02,101.0,101.0,100.0,13.4,1505.2,339.1,-0.7,1.8,2471.37,13.29,0.03,60.0
2023-05-15T06:58:03,42.805,6.029,0.02,0.015,-0.022,102.0,102.0,101.0,13.3,1505.2,330.8,-0.8,1.8,2471.349,13.29,0.025,53.1
2023-05-15T07:04:03,42.805,6.029,0.018,-0.004,-0.007,102.0,102.0,101.0,13.4,1505.2,342.5,-0.8,1.8,2471.312,13.28,0.018,102.5
2023-05-15T07:07:03,42.805,6.029,0.028,0.017,-0.015,103.0,100.0,101.0,13.3,1505.2,330.8,-0.8,1.8,2471.346,13.28,0.032,58.7
2023-05-15T07:10:03,42.805,6.029,0.034,-0.004,-0.024,101.0,101.0,101.0,13.3,1505.2,345.4,-0.7,1.8,2471.343,13.28,0.034,96.7
2023-05-15T07:13:03,42.805,6.029,0.018,-0.002,0.0,103.0,102.0,102.0,13.3,1505.2,319.1,-0.8,1.8,2471.356,13.29,0.018,96.3
2023-05-15T07:16:03,42.805,6.029,0.033,0.016,-0.007,103.0,101.0,101.0,13.3,1505.2,332.9,-0.8,1.8,2471.338,13.29,0.036,64.1
2023-05-15T07:19:03,42.805,6.029,0.016,0.015,0.022,101.0,103.0,100.0,13.3,1505.2,329.4,-0.7,1.8,2471.306,13.29,0.021,46.9
2023-05-15T07:22:03,42.805,6.029,0.028,0.007,-0.006,101.0,103.0,102.0,13.3,1505.2,325.7,-0.8,1.8,2471.342,13.29,0.028,76.0
2023-05-15T07:25:03,42.805,6.029,0.024,0.009,-0.016,103.0,101.0,101.0,13.4,1505.2,348.2,-0.8,1.8,2471.297,13.29,0.025,69.4
2023-05-15T07:28:03,42.805,6.029,0.002,0.0,-0.039,102.0,102.0,101.0,13.4,1505.2,321.2,-0.8,1.8,2471.312,13.29,0.002,90.0
2023-05-15T07:31:03,42.805,6.029,0.032,-0.003,0.0,102.0,103.0,101.0,13.3,1505.2,337.5,-0.8,1.8,2471.294,13.29,0.032,95.4
2023-05-15T07:34:03,42.805,6.029,0.009,0.018,0.001,101.0,103.0,102.0,13.4,1505.2,319.6,-0.8,1.8,2471.272,13.29,0.02,26.6
2023-05-15T07:37:03,42.805,6.029,0.036,-0.017,-0.064,101.0,102.0,100.0,13.4,1505.2,329.2,-0.8,1.8,2471.293,13.29,0.039,115.3
2023-05-15T07:40:03,42.805,6.029,0.017,0.018,-0.029,103.0,101.0,101.0,13.4,1505.2,322.4,-0.8,1.8,2471.26,13.29,0.024,43.4
2023-05-15T07:43:03,42.805,6.029,0.023,0.009,-0.006,102.0,103.0,100.0,13.3,1505.2,338.2,-0.7,1.8,2471.295,13.29,0.024,68.6
2023-05-15T07:46:03,42.805,6.029,0.033,0.011,-0.021,102.0,104.0,100.0,13.3,1505.2,331.8,-0.8,1.9,2471.316,13.29,0.034,71.6
2023-05-15T07:49:03,42.805,6.029,0.013,0.002,-0.056,102.0,101.0,101.0,13.4,1505.2,337.4,-0.8,1.8,2471.248,13.29,0.013,81.3
2023-05-15T07:52:03,42.805,6.029,0.025,-0.003,-0.038,103.0,102.0,100.0,13.4,1505.2,337.9,-0.8,1.8,2471.246,13.29,0.025,96.8
2023-05-15T07:55:03,42.805,6.029,0.016,0.013,-0.043,101.0,101.0,101.0,13.4,1505.2,330.9,-0.8,1.8,2471.271,13.29,0.02,50.9
2023-05-15T07:58:03,42.805,6.029,0.017,0.017,-0.019,102.0,101.0,101.0,13.4,1505.2,330.2,-0.8,1.8,2471.278,13.29,0.024,45.0
2023-05-15T08:04:03,42.805,6.029,0.033,-0.022,-0.024,101.0,102.0,101.0,13.3,1505.2,340.8,-0.8,1.8,2471.318,13.28,0.039,123.7
2023-05-15T08:07:03,42.805,6.029,0.021,0.018,0.009,101.0,103.0,101.0,13.3,1505.2,320.3,-0.8,1.8,2471.31,13.28,0.027,49.4
2023-05-15T08:10:03,42.805,6.029,0.028,0.009,-0.02,103.0,101.0,101.0,13.4,1505.2,337.0,-0.8,1.8,2471.326,13.28,0.029,72.2
2023-05-15T08:13:03,42.805,6.029,0.032,0.017,-0.028,102.0,101.0,101.0,13.3,1505.2,325.0,-0.8,1.8,2471.272,13.28,0.036,62.0
2023-05-15T08:16:03,42.805,6.029,0.032,0.004,-0.028,102.0,101.0,102.0,13.4,1505.2,326.3,-0.7,1.8,2471.29,13.29,0.032,82.9
2023-05-15T08:19:03,42.805,6.029,0.013,0.019,-0.023,102.0,102.0,101.0,13.4,1505.2,316.9,-0.8,1.8,2471.246,13.29,0.023,34.4
2023-05-15T08:22:03,42.805,6.029,0.025,0.009,0.003,102.0,101.0,101.0,13.4,1505.2,321.0,-0.8,1.8,2471.237,13.29,0.026,70.2
2023-05-15T08:25:03,42.805,6.029,0.02,0.025,-0.024,101.0,102.0,101.0,13.3,1505.2,337.5,-0.8,1.8,2471.259,13.29,0.032,38.7
2023-05-15T08:28:03,42.805,6.029,0.046,-0.019,-0.004,100.0,102.0,101.0,13.3,1505.2,339.9,-0.8,1.8,2471.277,13.29,0.049,112.4
2023-05-15T08:31:03,42.805,6.029,0.023,0.005,0.003,102.0,101.0,101.0,13.3,1505.2,332.4,-0.7,1.8,2471.238,13.29,0.023,77.7
2023-05-15T08:34:03,42.805,6.029,0.024,0.003,-0.026,102.0,102.0,101.0,13.4,1505.2,327.3,-0.7,1.8,2471.226,13.29,0.024,82.9
2023-05-15T08:37:03,42.805,6.029,0.009,0.03,-0.018,102.0,100.0,101.0,13.4,1505.2,327.3,-0.8,1.8,2471.217,13.29,0.031,16.7
2023-05-15T08:40:03,42.805,6.029,0.0,0.018,-0.024,103.0,102.0,101.0,13.3,1505.2,335.8,-0.7,1.8,2471.248,13.29,0.018,0.0
2023-05-15T08:43:03,42.805,6.029,0.015,0.003,-0.037,100.0,103.0,100.0,13.3,1505.2,331.0,-0.7,1.8,2471.246,13.29,0.015,78.7
2023-05-15T08:46:03,42.805,6.029,0.044,0.013,-0.017,101.0,102.0,101.0,13.3,1505.2,316.3,-0.7,1.8,2471.222,13.29,0.045,73.5
2023-05-15T08:49:03,42.805,6.029,0.01,0.002,-0.042,102.0,102.0,100.0,13.4,1505.2,337.1,-0.8,1.8,2471.204,13.29,0.01,78.7
2023-05-15T08:52:03,42.805,6.029,0.021,0.002,0.007,102.0,103.0,100.0,13.3,1505.2,341.2,-0.8,1.8,2471.195,13.29,0.021,84.6
2023-05-15T08:55:03,42.805,6.029,0.006,0.019,-0.02,102.0,102.0,101.0,13.3,1505.2,316.3,-0.8,1.8,2471.259,13.29,0.019,17.5
2023-05-15T08:58:03,42.805,6.029,0.017,0.006,-0.043,103.0,104.0,102.0,13.4,1505.2,325.5,-0.8,1.8,2471.214,13.29,0.018,70.6
2023-05-15T09:04:03,42.805,6.029,0.013,0.027,0.003,101.0,101.0,101.0,13.4,1505.2,331.9,-0.8,1.8,2471.26,13.28,0.029,25.7
2023-05-15T09:07:03,42.805,6.029,0.022,-0.023,0.002,101.0,102.0,101.0,13.4,1505.2,330.6,-0.8,1.8,2471.249,13.28,0.031,136.3
2023-05-15T09:10:03,42.805,6.029,0.01,-0.01,-0.044,102.0,102.0,101.0,13.3,1505.2,321.1,-0.8,1.8,2471.203,13.28,0.014,135.0
2023-05-15T09:13:03,42.805,6.029,0.013,0.026,-0.002,102.0,103.0,101.0,13.4,1505.2,322.6,-0.8,1.8,2471.248,13.29,0.029,26.6
2023-05-15T09:16:03,42.805,6.029,0.023,0.016,-0.018,103.0,102.0,101.0,13.4,1505.2,333.0,-0.8,1.8,2471.224,13.29,0.028,55.2
2023-05-15T09:19:03,42.805,6.029,0.028,0.029,-0.003,101.0,102.0,101.0,13.3,1505.2,322.3,-0.7,1.9,2471.221,13.29,0.04,44.0
2023-05-15T09:22:03,42.805,6.029,0.021,0.01,0.0,102.0,102.0,101.0,13.3,1505.2,329.5,-0.7,1.8,2471.232,13.29,0.023,64.5
2023-05-15T09:25:03,42.805,6.029,0.0,0.014,-0.027,102.0,102.0,101.0,13.3,1505.2,330.5,-0.7,1.8,2471.226,13.29,0.014,0.0
2023-05-15T09:28:03,42.805,6.029,0.025,-0.007,-0.018,103.0,102.0,101.0,13.4,1505.2,344.4,-0.8,1.8,2471.189,13.29,0.025,105.6
2023-05-15T09:31:03,42.805,6.029,0.033,-0.007,-0.029,103.0,102.0,100.0,13.3,1505.2,329.5,-0.8,1.8,2471.202,13.29,0.033,102.0
2023-05-15T09:34:03,42.805,6.029,0.015,-0.014,-0.002,102.0,102.0,101.0,13.4,1505.2,336.5,-0.8,1.8,2471.229,13.29,0.02,133.0
2023-05-15T09:37:03,42.805,6.029,0.021,0.027,0.015,102.0,101.0,101.0,13.3,1505.2,319.9,-0.8,1.8,2471.195,13.29,0.034,37.9
2023-05-15T09:40:04,42.805,6.029,0.038,0.01,-0.023,102.0,103.0,102.0,13.3,1505.2,332.4,-0.7,1.8,2471.171,13.29,0.039,75.3
2023-05-15T09:43:03,42.805,6.029,0.018,0.013,-0.029,102.0,102.0,101.0,13.4,1505.2,327.4,-0.7,1.8,2471.182,13.29,0.022,54.2
2023-05-15T09:46:03,42.805,6.029,0.004,0.004,-0.028,102.0,102.0,102.0,13.4,1505.2,344.3,-0.8,1.8,2471.207,13.29,0.005,45.0
2023-05-15T09:49:03,42.805,6.029,0.035,0.007,0.002,102.0,102.0,102.0,13.3,1505.2,321.7,-0.8,1.8,2471.182,13.29,0.035,78.7
2023-05-15T09:52:03,42.805,6.029,0.027,0.003,-0.019,102.0,103.0,101.0,13.4,1505.2,328.8,-0.8,1.8,2471.18,13.29,0.027,83.7
2023-05-15T09:55:03,42.805,6.029,0.048,0.008,-0.025,103.0,103.0,101.0,13.4,1505.2,329.4,-0.7,1.8,2471.177,13.29,0.048,80.5
2023-05-15T09:58:03,42.805,6.029,0.036,0.016,0.008,102.0,102.0,100.0,13.4,1505.2,333.8,-0.8,1.8,2471.218,13.29,0.039,66.0
2023-05-15T10:04:03,42.805,6.029,0.022,0.006,-0.022,103.0,102.0,101.0,13.4,1505.2,330.0,-0.8,1.8,2471.214,13.28,0.022,74.7